User: anonymous   Login
Location: Unspecified
(0.0000°N, 0.0000°E)
Time: 13:02:16
(UTC+00:00)
Language:

CUBEBUG 2 - Orbit

View from above orbital plane
View from above orbital plane
View from above satellite
View from above satellite

Ground track
Ground track

The orbit data is extracted from the following two-line orbital elements,

1 39440U 13066AA  21015.66920796  .00000288  00000-0  46770-4 0  9996
2 39440  97.6568 352.7424 0080336  12.3438 347.9716 14.76140647383888
Epoch (UTC): 15 January 2021 16:03:39
Eccentricity: 0.0080336
inclination: 97.6568°
perigee height: 585 km
apogee height: 698 km
right ascension of ascending node: 352.7424°
argument of perigee: 12.3438°
revolutions per day: 14.76140647
mean anomaly at epoch: 347.9716°
orbit number at epoch: 38388

The dashed part of the orbit path shows where the satellite is in the earth's shadow,  

DLR